{"data":{"norad_id":52482,"epoch":"2026-05-25T01:56:56.779872Z","epoch_age_seconds":71955,"freshness":"FRESH","line1":"1 52482U 22049AH  26145.08121273 -.00002624  00000+0 -14679-3 0  9995","line2":"2 52482  53.2124  66.1850 0001425  97.5879 262.5275 15.08843613223929","mean_motion":15.08843613,"eccentricity":0.0001425,"inclination_deg":53.2124,"raan_deg":66.185,"arg_perigee_deg":97.5879,"mean_anomaly_deg":262.5275,"bstar":-0.00014679,"rev_number":22392,"period_min":95.437326147862,"perigee_km":538.74654910881,"apogee_km":540.71814187228,"semimajor_km":6917.8693454905,"source":"CELESTRAK","updated_at":"2026-05-25T13:38:17.155719Z"}}